International Skating Union - Official Site

Essent ISU World Cup Inzell
February 9-10, 2013

Draw | Lap Times | Index | World Cup

Referee: Knut Arthur  OLSEN  (NOR)
Starter: Stefan  HERRMANN  (GER)
StartTime: EndTime: Air Temp: Ice Temp: Humidity:
12:00 12:42 12℃ -6℃ 43%
Result 3000m Ladies Division A
Rankings as of Feb 10 2013 12:49PM
Rank: No.: Name: Nation: Time: Behind: Points:
1 153 Ireen  Wüst NED NED 4:02.23200m - 19.55 - (19.5)
600m - 49.89 - (30.3)
1000m - 1:20.54 - (30.6)
1400m - 1:51.42 - (30.8)
1800m - 2:22.68 - (31.2)
2200m - 2:54.75 - (32.0)
2600m - 3:27.81 - (33.0)
3000m - 4:02.23 - (34.4)
100
2 150 Diane  Valkenburg NED NED 4:05.31200m - 20.51 - (20.5)
600m - 51.90 - (31.3)
1000m - 1:23.22 - (31.3)
1400m - 1:55.05 - (31.8)
1800m - 2:26.92 - (31.8)
2200m - 2:58.93 - (32.0)
2600m - 3:31.49 - (32.5)
3000m - 4:05.31 - (33.8)
3.08 80
3 114 Martina  Sábliková CZE CZE 4:05.41200m - 20.59 - (20.5)
600m - 52.25 - (31.6)
1000m - 1:23.92 - (31.6)
1400m - 1:55.98 - (32.0)
1800m - 2:27.69 - (31.7)
2200m - 3:00.12 - (32.4)
2600m - 3:32.48 - (32.3)
3000m - 4:05.41 - (32.9)
3.18 70
4 123 Claudia  Pechstein GER GER 4:05.55200m - 20.15 - (20.1)
600m - 51.14 - (30.9)
1000m - 1:22.66 - (31.5)
1400m - 1:54.62 - (31.9)
1800m - 2:26.87 - (32.2)
2200m - 2:59.58 - (32.7)
2600m - 3:32.54 - (32.9)
3000m - 4:05.55 - (33.0)
3.32 60
5 118 Stephanie  Beckert GER GER 4:06.18200m - 20.91 - (20.9)
600m - 52.37 - (31.4)
1000m - 1:24.11 - (31.7)
1400m - 1:55.86 - (31.7)
1800m - 2:27.99 - (32.1)
2200m - 3:00.50 - (32.5)
2600m - 3:33.47 - (32.9)
3000m - 4:06.18 - (32.7)
3.95 50
6 151 Linda  de Vries NED NED 4:07.56200m - 19.83 - (19.8)
600m - 51.48 - (31.6)
1000m - 1:22.87 - (31.3)
1400m - 1:54.50 - (31.6)
1800m - 2:26.38 - (31.8)
2200m - 2:59.20 - (32.8)
2600m - 3:32.85 - (33.6)
3000m - 4:07.56 - (34.7)
5.33 45
7 157 Katarzyna  Bachleda-Curus POL POL 4:07.64200m - 20.16 - (20.1)
600m - 51.35 - (31.1)
1000m - 1:22.40 - (31.0)
1400m - 1:54.21 - (31.8)
1800m - 2:26.67 - (32.4)
2200m - 2:59.74 - (33.0)
2600m - 3:33.22 - (33.4)
3000m - 4:07.64 - (34.4)
5.41 40
8 129 Masako  Hozumi JPN JPN 4:08.75200m - 20.64 - (20.6)
600m - 51.39 - (30.7)
1000m - 1:22.85 - (31.4)
1400m - 1:54.90 - (32.0)
1800m - 2:27.60 - (32.7)
2200m - 3:00.58 - (32.9)
2600m - 3:34.25 - (33.6)
3000m - 4:08.75 - (34.5)
6.52 35
9 156 Ida  Njåtun NOR NOR 4:08.90200m - 20.32 - (20.3)
600m - 51.89 - (31.5)
1000m - 1:23.90 - (32.0)
1400m - 1:56.42 - (32.5)
1800m - 2:29.23 - (32.8)
2200m - 3:02.21 - (32.9)
2600m - 3:35.36 - (33.1)
3000m - 4:08.90 - (33.5)
6.67 30
10 163 Olga  Graf RUS RUS 4:11.83200m - 20.99 - (20.9)
600m - 52.50 - (31.5)
1000m - 1:24.24 - (31.7)
1400m - 1:57.06 - (32.8)
1800m - 2:30.24 - (33.1)
2200m - 3:03.45 - (33.2)
2600m - 3:37.33 - (33.8)
3000m - 4:11.83 - (34.5)
9.60 25
11 145 Marije  Joling NED NED 4:11.94200m - 20.03 - (20.0)
600m - 50.37 - (30.3)
1000m - 1:21.51 - (31.1)
1400m - 1:53.73 - (32.2)
1800m - 2:26.92 - (33.1)
2200m - 3:01.10 - (34.1)
2600m - 3:36.10 - (35.0)
3000m - 4:11.94 - (35.8)
9.71 21
12 162 Yevgeniya  Dmitriyeva RUS RUS 4:12.36200m - 20.54 - (20.5)
600m - 52.32 - (31.7)
1000m - 1:24.22 - (31.9)
1400m - 1:57.09 - (32.8)
1800m - 2:30.24 - (33.1)
2200m - 3:04.14 - (33.9)
2600m - 3:38.22 - (34.0)
3000m - 4:12.36 - (34.1)
10.13 18
13 138 Bo-Reum  Kim KOR KOR 4:13.04200m - 20.75 - (20.7)
600m - 52.90 - (32.1)
1000m - 1:25.06 - (32.1)
1400m - 1:57.52 - (32.4)
1800m - 2:30.48 - (32.9)
2200m - 3:03.94 - (33.4)
2600m - 3:38.70 - (34.7)
3000m - 4:13.04 - (34.3)
10.81 16
14 104 Jelena  Peeters BEL BEL 4:13.48200m - 20.36 - (20.3)
600m - 52.18 - (31.8)
1000m - 1:25.05 - (32.8)
1400m - 1:58.13 - (33.0)
1800m - 2:31.58 - (33.4)
2200m - 3:05.09 - (33.5)
2600m - 3:39.30 - (34.2)
3000m - 4:13.48 - (34.1)
11.25 14
15 106 Ivanie  Blondin CAN CAN 4:16.97200m - 20.46 - (20.4)
600m - 52.36 - (31.9)
1000m - 1:25.02 - (32.6)
1400m - 1:57.49 - (32.4)
1800m - 2:30.82 - (33.3)
2200m - 3:04.73 - (33.9)
2600m - 3:40.11 - (35.3)
3000m - 4:16.97 - (36.8)
14.74 12
16 130 Eriko  Ishino JPN JPN 4:21.20200m - 20.49 - (20.4)
600m - 51.61 - (31.1)
1000m - 1:23.62 - (32.0)
1400m - 1:56.90 - (33.2)
1800m - 2:31.28 - (34.3)
2200m - 3:06.97 - (35.6)
2600m - 3:43.81 - (36.8)
3000m - 4:21.20 - (37.3)
18.97 10